SCP
0 0 0 0 0 0 0 0 0 0 0 0 0 0 0 0 0 0 0 0 0 0
0 0 0 0 0 0 0 0 0 0 0 0 0 0 0 0 0 0 0 0 0 0
0 0 0 0 0 0 0 0 0 0 0 0 0 0 0 0 0 0 0 0 0 0
0 0 0 0 0 0 0 0 0 0 0 0 0 0 0 0 0 0 0 0 0 0
0 0 0 0 0 0 0 0 0 0 0 0 0 0 0 0 0 0 0 0 0 0
0 0 0 0 0 0 0 0 0 0 0 0 0 0 0 0 0 0 0 0 0 0
0 0 0 0 0 0 0 0 0 0 0 0 0 0 0 0 0 0 0 0 0 0
0 0 0 0 0 0 0 0 0 0 0 0 0 0 0 0 0 0 0 0 0 0
0 0 0 0 0 0 0 0 0 0 0 0 0 0 0 0 0 0 0 0 0 0
0 0 0 0 0 0 0 0 0 0 0 0 0 0 0 0 0 0 0 0 0 0
0 0 0 0 0 0 0 0 0 0 0 0 0 0 0 0 0 0 0 0 0 0
0 0 0 0 0 0 0 0 0 0 0 0 0 0 0 0 0 0 0 0 0 0
0 0 0 0 0 0 0 0 0 0 0 0 0 0 0 0 0 0 0 0 0 0
0 0 0 0 0 0 0 0 0 0 0 0 0 0 0 0 0 0 0 0 0 0
Wind_Speed_500mb
26 23 19 15 11 8 9 13 21 28 31 33 34 36 37 39 41 41 43 45 45 46
28 26 24 21 19 17 16 16 16 17 21 25 30 33 36 42 42 40 43 45 47 48
26 26 24 21 21 20 21 20 20 19 18 19 19 24 29 36 40 40 42 42 43 45
26 26 24 24 24 24 23 24 24 23 22 20 19 18 19 23 28 32 36 38 43 47
25 24 24 25 26 27 26 25 27 26 25 24 23 20 18 18 19 25 30 34 38 43
26 27 27 27 28 28 28 28 28 27 28 28 26 23 24 20 21 22 24 26 30 37
31 31 31 30 30 30 30 30 29 29 29 31 29 24 35 32 30 27 25 27 28 31
32 34 34 35 34 33 31 31 30 32 31 31 32 28 44 43 40 36 33 31 26 27
34 37 37 39 37 35 38 35 32 32 33 35 31 35 50 50 48 44 36 32 31 30
35 36 37 37 38 38 36 34 33 32 30 31 31 36 48 49 44 41 33 32 32 31
37 38 37 37 35 35 32 33 31 29 29 30 26 33 37 35 23 25 26 28 30 33
37 37 35 35 33 32 31 29 25 25 26 25 21 28 33 35 37 29 30 29 26 26
33 31 31 30 28 26 24 23 21 20 19 19 21 30 38 38 27 26 33 38 31 21
30 30 26 28 22 22 19 15 13 12 13 15 21 25 34 36 35 35 37 35 33 34
Wind_Direction_500mb
59 58 49 38 25 356 318 288 275 272 268 264 260 262 262 258 261 261 266 268 266 262
40 38 37 33 26 19 4 355 341 325 295 278 268 262 260 262 261 263 263 264 268 264
27 25 19 14 11 4 360 355 354 346 339 328 304 283 273 269 268 264 259 262 261 261
12 11 11 5 3 358 352 347 344 343 343 340 331 324 302 285 277 269 266 263 260 264
359 358 357 353 351 348 346 347 341 338 338 331 330 335 330 323 304 287 279 277 271 267
340 338 340 341 336 336 336 337 335 334 334 332 332 337 308 317 316 310 300 291 281 272
329 326 321 320 320 323 323 322 325 325 326 323 324 328 306 311 307 304 305 300 292 289
325 324 321 315 312 310 309 309 314 311 309 310 312 312 298 304 306 306 305 301 304 298
324 322 320 319 319 315 308 311 304 306 309 304 307 297 292 293 294 298 300 304 299 299
322 322 322 321 319 317 318 313 311 312 308 307 312 306 299 305 298 301 303 298 299 301
321 319 318 317 318 320 319 317 318 316 316 318 320 318 313 312 315 314 307 299 299 302
327 325 325 324 323 321 321 322 322 321 328 331 323 305 308 316 312 302 296 289 279 276
326 325 324 319 321 324 324 321 326 329 323 325 311 312 314 321 326 321 316 312 299 295
335 331 330 327 335 340 346 340 345 348 349 319 322 321 339 342 329 323 313 304 304 306
Wind_Speed_850mb
26 23 19 15 11 8 9 13 21 28 31 33 34 36 37 39 41 41 43 45 45 46
28 26 24 21 19 17 16 16 16 17 21 25 30 33 36 42 42 40 43 45 47 48
26 26 24 21 21 20 21 20 20 19 18 19 19 24 29 36 40 40 42 42 43 45
26 26 24 24 24 24 23 24 24 23 22 20 19 18 19 23 28 32 36 38 43 47
25 24 24 25 26 27 26 25 27 26 25 24 23 20 18 18 19 25 30 34 38 43
26 27 27 27 28 28 28 28 28 27 28 28 26 23 24 20 21 22 24 26 30 37
31 31 31 30 30 30 30 30 29 29 29 31 29 24 35 32 30 27 25 27 28 31
32 34 34 35 34 33 31 31 30 32 31 31 32 28 44 43 40 36 33 31 26 27
34 37 37 39 37 35 38 35 32 32 33 35 31 35 50 50 48 44 36 32 31 30
35 36 37 37 38 38 36 34 33 32 30 31 31 36 48 49 44 41 33 32 32 31
37 38 37 37 35 35 32 33 31 29 29 30 26 33 37 35 23 25 26 28 30 33
37 37 35 35 33 32 31 29 25 25 26 25 21 28 33 35 37 29 30 29 26 26
33 31 31 30 28 26 24 23 21 20 19 19 21 30 38 38 27 26 33 38 31 21
30 30 26 28 22 22 19 15 13 12 13 15 21 25 34 36 35 35 37 35 33 34
Wind_Direction_850mb
59 58 49 38 25 356 318 288 275 272 268 264 260 262 262 258 261 261 266 268 266 262
40 38 37 33 26 19 4 355 341 325 295 278 268 262 260 262 261 263 263 264 268 264
27 25 19 14 11 4 360 355 354 346 339 328 304 283 273 269 268 264 259 262 261 261
12 11 11 5 3 358 352 347 344 343 343 340 331 324 302 285 277 269 266 263 260 264
359 358 357 353 351 348 346 347 341 338 338 331 330 335 330 323 304 287 279 277 271 267
340 338 340 341 336 336 336 337 335 334 334 332 332 337 308 317 316 310 300 291 281 272
329 326 321 320 320 323 323 322 325 325 326 323 324 328 306 311 307 304 305 300 292 289
325 324 321 315 312 310 309 309 314 311 309 310 312 312 298 304 306 306 305 301 304 298
324 322 320 319 319 315 308 311 304 306 309 304 307 297 292 293 294 298 300 304 299 299
322 322 322 321 319 317 318 313 311 312 308 307 312 306 299 305 298 301 303 298 299 301
321 319 318 317 318 320 319 317 318 316 316 318 320 318 313 312 315 314 307 299 299 302
327 325 325 324 323 321 321 322 322 321 328 331 323 305 308 316 312 302 296 289 279 276
326 325 324 319 321 324 324 321 326 329 323 325 311 312 314 321 326 321 316 312 299 295
335 331 330 327 335 340 346 340 345 348 349 319 322 321 339 342 329 323 313 304 304 306